008  
ASUS41 KCLE 071212  
RWRCLE  
OHIO REGIONAL WEATHER ROUNDUP  
NATIONAL WEATHER SERVICE WILMINGTON, OH  
700 AM EST TUE FEB 07 2023  
 
NOTE: "FAIR" INDICATES FEW OR NO CLOUDS BELOW 12,000 FEET WITH NO  
SIGNIFICANT WEATHER AND/OR S TO VISIBILITY
.  
 
OHZ001>008-015>018-024>027-034-035-043-044-071300-  
NORTHWEST OHIO  
 
CITY SKY/WX TMP DP RH WIND PRES REMARKS
 
DEFIANCE FAIR 41 30 65 S13G23 29.90F  
FINDLAY CLOUDY 40 29 64 S13 29.95S  
TOLEDO EXPRESS CLOUDY 40 29 64 S10 29.91S  
TOLEDO EXEC CLOUDY 41 29 62 S20G25 29.93S  
LIMA MOCLDY 44 28 53 S16G30 29.95S  

 
 
OHZ009>014-019>023-028>033-038-089-071300-  
NORTHEAST OHIO  
 
CITY SKY/WX TMP DP RH WIND PRES REMARKS
 
CLE-HOPKINS MOCLDY 37 26 64 S13 29.99F  
CLE-LAKEFRONT FAIR 37 27 67 S25G37 29.98F  
CUY CO. ARPT CLEAR 34 27 75 S17G35 30.01F WCI 23  
LORAIN-ELYRIA CLOUDY 36 27 69 S15 29.99F  
ASHTABULA FAIR 32 26 78 S12 30.06F WCI 23  
AKRON-CANTON MOCLDY 33 26 75 S14 30.05F WCI 23  
WOOSTER FAIR 34 28 79 S12 30.05F WCI 25  
MANSFIELD CLOUDY 37 27 67 S18 30.01F  
YOUNGSTOWN MOCLDY 31 25 78 SE15G23 30.08F WCI 20  

 
 
OHZ042-051>053-060>062-070>072-077>081-071300-  
SOUTHWEST OHIO  
 
CITY SKY/WX TMP DP RH WIND PRES REMARKS
 
CINC-COVINGTON CLOUDY 47 30 51 S12 30.05R  
CINC-LUNKEN CLOUDY 42 31 64 SW7 30.08S  
HAMILTON MOCLDY 41 29 62 SE3 30.06S  
DAYTON MOCLDY 45 27 49 S16 30.02R  
WRIGHT-PAT AFB CLOUDY 44 28 52 S8 30.00S  
DAYTON GENERAL CLOUDY 45 28 51 S15 30.03R  
WILMINGTON MOCLDY 43 29 57 S15 30.05S  

 
 
OHZ036-037-039>041-045>050-054>059-063>069-073>076-082>088-071300-  
CENTRAL AND SOUTHEAST OHIO  
 
CITY SKY/WX TMP DP RH WIND PRES REMARKS
 
COLUMBUS CLOUDY 39 27 62 SE8 30.07S  
OSU AIRPORT MOCLDY 38 28 67 S9 30.06S  
BOLTON FIELD MOCLDY 35 29 78 S12 30.07S WCI 27  
RICKENBACK AFB MOCLDY 39 28 65 S12 30.08S  
NEWARK FAIR 32 27 81 CALM 30.08F  
MARION CLOUDY 39 27 62 S18 30.00F  
LANCASTER FAIR 38 27 64 SE12 30.08F  
ZANESVILLE FAIR 35 26 69 SE6 30.11F  
NEW PHILLY FAIR 32 26 78 SE6 30.11F WCI 26  

 
 
 
CLICK HERE TO GO TO PREVIOUS BULLETINS.

The Nexlab OH Page
The Nexlab PA Page Main Text Page